Flag for Brazil Weather past 2 weeks in Ilhéus, Bahia, Brazil

Now
82 °F

Scattered clouds.


Feels Like: 87 °F
Forecast: 73 / 85 °F
Wind: 13 mph from Northeast

Location: Salvador Aeroporto

Current Time: Mar 3, 2015 at 9:05:02 AM

Latest Report: Mar 3, 2015 at 8:00 AM


Visibility: N/A

Pressure: 29.92 "Hg

Humidity: 70%

Dew point: 72 °F

Location of IlhéusLocation

Historic Weather in Ilhéus — Graph

°F

Ilhéus temperature yesterday

Maximum temperature yesterday: 86 °F (at 10:00 AM)
Minimum temperature yesterday: 77 °F (at 5:00 AM)
Average temperature yesterday: 82 °F

Past Weeks' High & Low Weather Summary

 TemperatureHumidityPressure
High88 °F (Feb 28, 12:00 PM)100% (Feb 26, 9:00 AM)30.04 "Hg (Feb 26, 9:00 AM)
Low43 °F (Feb 26, 9:00 AM)59% (Feb 19, 12:00 PM)29.80 "Hg (Feb 27, 3:00 PM)
Average80 °F75%29.91 "Hg
* Reported Feb 16 8:00 AM — Mar 3 8:00 AM, Ilhéus, Weather by CustomWeather, © 2015

Note: Actual official high and low records may vary slightly from our data, if they occured in-between our weather recording intervals... More about our weather records

Advertising

Ilhéus weather history for previous 24 hours

 ConditionsComfort  
Time TempWeatherWind HumidityBarometerVisibility
8:00 AM
Tue, Mar 3
82 °FScattered clouds.13 mph70%29.92 "HgN/A
7:00 AM75 °FScattered clouds.7 mph89%29.89 "Hg5 mi
6:00 AM75 °FScattered showers. Broken clouds.6 mph83%N/AN/A
5:00 AM77 °FScattered showers. Passing clouds.2 mph83%N/A5 mi
4:00 AM81 °FPassing clouds.9 mph74%29.86 "HgN/A
3:00 AM79 °FPassing clouds.6 mph74%29.86 "HgN/A
2:00 AM79 °FPassing clouds.7 mph79%29.86 "HgN/A
1:00 AM79 °FPassing clouds.8 mph79%29.89 "HgN/A
12:00 AM79 °FPassing clouds.7 mph79%29.89 "HgN/A
11:00 PM
Mon, Mar 2
79 °FScattered showers. Passing clouds.13 mph79%N/AN/A
10:00 PM79 °FPassing clouds.7 mph61%29.95 "HgN/A
9:00 PM81 °FScattered showers. Passing clouds.14 mph70%29.92 "Hg5 mi
8:00 PM82 °FPassing clouds.13 mph70%29.92 "HgN/A
7:00 PM82 °FPassing clouds.10 mph70%29.89 "HgN/A
6:00 PM82 °FPassing clouds.9 mph70%29.86 "HgN/A
5:00 PM84 °FPassing clouds.13 mph66%29.86 "HgN/A
4:00 PM86 °FPassing clouds.13 mph62%29.86 "HgN/A
3:00 PM86 °FPassing clouds.13 mph62%29.89 "HgN/A
2:00 PM86 °FPassing clouds.10 mph62%29.89 "HgN/A
1:00 PM86 °FPassing clouds.12 mph62%29.92 "HgN/A
12:00 PM86 °FPassing clouds.12 mph62%29.95 "HgN/A
11:00 AM86 °FPassing clouds.17 mph62%29.98 "HgN/A
10:00 AM86 °FPassing clouds.12 mph62%29.98 "HgN/A
9:00 AM84 °FPassing clouds.12 mph66%29.98 "HgN/A
Weather by CustomWeather, © 2015

See weather overviewHow to use our weather pages